| time (UTC) | temp F | wind direction | speed MPH | gust MPH | rain 1hr in | rain 24hr in | rain mn in | humidity % | barometer mb |
| 20260509150050 | 73 | 80 | 1.0 | 3.0 | 0.00 | 0.00 | 0.00 | 57 | |
| 20260509144627 | 72 | 273 | 1.0 | 5.0 | 0.00 | 0.00 | 0.00 | 59 | |
| 20260509143047 | 71 | 272 | 0.0 | 3.0 | 0.00 | 0.00 | 0.00 | 63 | |
| 20260509141546 | 71 | 312 | 0.0 | 2.0 | 0.00 | 0.00 | 0.00 | 66 | |
| 20260509140046 | 70 | 279 | 0.0 | 4.0 | 0.00 | 0.00 | 0.00 | 67 | |
| 20260509134547 | 70 | 339 | 0.0 | 3.0 | 0.00 | 0.00 | 0.00 | 68 | |
| 20260509133051 | 70 | 165 | 0.0 | 4.0 | 0.00 | 0.00 | 0.00 | 68 | |
| 20260509131547 | 69 | 273 | 1.0 | 4.0 | 0.00 | 0.00 | 0.00 | 68 | |
| 20260509130059 | 69 | 299 | 0.0 | 3.0 | 0.00 | 0.00 | 0.00 | 67 | |
| 20260509124608 | 69 | 301 | 0.0 | 4.0 | 0.00 | 0.00 | 0.00 | 67 | |
| 20260509123102 | 68 | 309 | 1.0 | 3.0 | 0.00 | 0.00 | 0.00 | 67 | |
| 20260509121606 | 68 | 268 | 0.0 | 2.0 | 0.00 | 0.00 | 0.00 | 66 | |
| 20260509120007 | 68 | 266 | 1.0 | 3.0 | 0.00 | 0.00 | 0.00 | 66 | |
| 20260509114505 | 68 | 283 | 0.0 | 4.0 | 0.00 | 0.00 | 0.00 | 65 | |
| 20260509113008 | 68 | 282 | 1.0 | 5.0 | 0.00 | 0.00 | 0.00 | 65 | |
| 20260509111511 | 67 | 278 | 1.0 | 4.0 | 0.00 | 0.00 | 0.00 | 65 | |
| 20260509110012 | 68 | 306 | 0.0 | 4.0 | 0.00 | 0.00 | 0.00 | 65 | |
| 20260509104527 | 68 | 316 | 0.0 | 5.0 | 0.00 | 0.00 | 0.00 | 65 | |
| 20260509103010 | 68 | 320 | 0.0 | 2.0 | 0.00 | 0.00 | 0.00 | 66 | |
| 20260509101517 | 68 | 288 | 1.0 | 4.0 | 0.00 | 0.00 | 0.00 | 67 | |
| 20260509100026 | 68 | 270 | 1.0 | 3.0 | 0.00 | 0.00 | 0.00 | 67 | |
| 20260509094521 | 69 | 264 | 1.0 | 3.0 | 0.00 | 0.00 | 0.00 | 68 | |
| 20260509093019 | 69 | 264 | 0.0 | 2.0 | 0.00 | 0.00 | 0.00 | 68 | |
| 20260509091519 | 69 | 264 | 0.0 | 7.0 | 0.00 | 0.00 | 0.00 | 69 | |
| 20260509090019 | 70 | 71 | 0.0 | 6.0 | 0.00 | 0.00 | 0.00 | 69 | |
| 20260509084525 | 69 | 227 | 1.0 | 8.0 | 0.00 | 0.00 | 0.00 | 69 | |
| 20260509083018 | 69 | 257 | 2.0 | 6.0 | 0.00 | 0.00 | 0.00 | 69 | |
| 20260509081528 | 69 | 169 | 0.0 | 3.0 | 0.00 | 0.00 | 0.00 | 69 | |
| 20260509080022 | 69 | 186 | 0.0 | 5.0 | 0.00 | 0.00 | 0.00 | 69 | |
| 20260509074522 | 69 | 223 | 0.0 | 7.0 | 0.00 | 0.00 | 0.00 | 68 | |
| 20260509073025 | 69 | 232 | 2.0 | 5.0 | 0.00 | 0.00 | 0.00 | 68 | |
| 20260509071527 | 69 | 248 | 1.0 | 5.0 | 0.00 | 0.00 | 0.00 | 68 | |
| 20260509070026 | 69 | 277 | 0.0 | 3.0 | 0.00 | 0.00 | 0.00 | 67 | |
| 20260509064530 | 69 | 300 | 0.0 | 4.0 | 0.00 | 0.00 | 0.00 | 67 | |
| 20260509063031 | 69 | 181 | 0.0 | 0.0 | 0.00 | 0.00 | 0.00 | 66 | |
| 20260509061544 | 69 | 166 | 0.0 | 0.0 | 0.00 | 0.00 | 0.00 | 65 | |
| 20260509060037 | 69 | 166 | 0.0 | 0.0 | 0.00 | 0.00 | 0.00 | 65 | |
| 20260509054548 | 70 | 166 | 0.0 | 0.0 | 0.00 | 0.00 | 0.00 | 65 | |
| 20260509053039 | 70 | 166 | 0.0 | 0.0 | 0.00 | 0.00 | 0.00 | 64 | |
| 20260509051542 | 70 | 166 | 0.0 | 0.0 | 0.00 | 0.00 | 0.00 | 64 | |
| 20260509050055 | 71 | 167 | 0.0 | 0.0 | 0.00 | 0.00 | 0.00 | 63 | |
| 20260509044551 | 71 | 167 | 0.0 | 0.0 | 0.00 | 0.00 | 0.00 | 63 | |
| 20260509043052 | 72 | 167 | 0.0 | 0.0 | 0.00 | 0.00 | 0.00 | 63 | |
| 20260509041554 | 72 | 167 | 0.0 | 0.0 | 0.00 | 0.00 | 0.00 | 63 | |
| 20260509040059 | 72 | 167 | 0.0 | 0.0 | 0.00 | 0.00 | 0.00 | 63 | |
| 20260509034504 | 72 | 167 | 0.0 | 0.0 | 0.00 | 0.00 | 0.00 | 63 | |
| 20260509033006 | 72 | 167 | 0.0 | 0.0 | 0.00 | 0.00 | 0.00 | 62 | |
| 20260509031508 | 72 | 167 | 0.0 | 0.0 | 0.00 | 0.00 | 0.00 | 62 | |
| 20260509030008 | 72 | 167 | 0.0 | 0.0 | 0.00 | 0.00 | 0.00 | 62 | |
| 20260509024509 | 72 | 167 | 0.0 | 0.0 | 0.00 | 0.00 | 0.00 | 61 | |
| 20260509023016 | 72 | 167 | 0.0 | 0.0 | 0.00 | 0.00 | 0.00 | 61 | |
| 20260509021519 | 73 | 162 | 0.0 | 2.0 | 0.00 | 0.00 | 0.00 | 60 | |
| 20260509020018 | 73 | 162 | 0.0 | 2.0 | 0.00 | 0.00 | 0.00 | 60 | |
| 20260509014526 | 73 | 162 | 0.0 | 2.0 | 0.00 | 0.00 | 0.00 | 59 | |
| 20260509013038 | 73 | 161 | 0.0 | 0.0 | 0.00 | 0.00 | 0.00 | 58 | |
| 20260509011529 | 74 | 161 | 0.0 | 0.0 | 0.00 | 0.00 | 0.00 | 58 | |
| 20260509010031 | 74 | 218 | 0.0 | 2.0 | 0.00 | 0.00 | 0.00 | 57 | |
| 20260509004536 | 74 | 218 | 0.0 | 2.0 | 0.00 | 0.00 | 0.00 | 57 | |
| 20260509003038 | 74 | 228 | 0.0 | 2.0 | 0.00 | 0.00 | 0.00 | 57 | |
| 20260509001545 | 74 | 229 | 0.0 | 3.0 | 0.00 | 0.00 | 0.00 | 56 | |
| 20260509000047 | 75 | 216 | 0.0 | 3.0 | 0.00 | 0.00 | 0.00 | 55 | |
| 20260508234546 | 75 | 202 | 0.0 | 2.0 | 0.00 | 0.00 | 0.00 | 54 | |
| 20260508233052 | 76 | 185 | 0.0 | 3.0 | 0.00 | 0.00 | 0.00 | 54 | |
| 20260508231554 | 76 | 187 | 0.0 | 3.0 | 0.00 | 0.00 | 0.00 | 52 | |
| 20260508230056 | 77 | 191 | 1.0 | 4.0 | 0.00 | 0.00 | 0.00 | 51 | |
| 20260508224603 | 78 | 231 | 1.0 | 4.0 | 0.00 | 0.00 | 0.00 | 50 | |
| 20260508223053 | 78 | 229 | 2.0 | 5.0 | 0.00 | 0.00 | 0.00 | 50 | |
| 20260508221603 | 78 | 231 | 1.0 | 6.0 | 0.00 | 0.00 | 0.00 | 49 | |
| 20260508220105 | 78 | 239 | 1.0 | 5.0 | 0.00 | 0.00 | 0.00 | 48 | |
| 20260508214558 | 77 | 179 | 1.0 | 5.0 | 0.00 | 0.00 | 0.00 | 49 | |
| 20260508213116 | 77 | 167 | 1.0 | 6.0 | 0.00 | 0.00 | 0.00 | 48 | |
| 20260508211501 | 77 | 215 | 1.0 | 3.0 | 0.00 | 0.00 | 0.00 | 49 | |
| 20260508210001 | 76 | 226 | 2.0 | 4.0 | 0.00 | 0.00 | 0.00 | 49 | |
| 20260508204513 | 75 | 187 | 0.0 | 5.0 | 0.00 | 0.00 | 0.00 | 53 | |
| 20260508203006 | 73 | 229 | 0.0 | 2.0 | 0.00 | 0.00 | 0.00 | 52 | |
| 20260508201511 | 73 | 238 | 0.0 | 6.0 | 0.00 | 0.00 | 0.00 | 51 | |
| 20260508200012 | 74 | 231 | 0.0 | 2.0 | 0.00 | 0.00 | 0.00 | 51 | |
| 20260508194508 | 74 | 232 | 1.0 | 6.0 | 0.00 | 0.00 | 0.00 | 51 | |
| 20260508193013 | 74 | 248 | 0.0 | 3.0 | 0.00 | 0.00 | 0.00 | 52 | |
| 20260508191516 | 74 | 177 | 0.0 | 3.0 | 0.00 | 0.00 | 0.00 | 51 | |
| 20260508190032 | 75 | 226 | 1.0 | 4.0 | 0.00 | 0.00 | 0.00 | 50 | |
| 20260508184523 | 75 | 236 | 0.0 | 5.0 | 0.00 | 0.00 | 0.00 | 50 | |
| 20260508183023 | 75 | 218 | 0.0 | 4.0 | 0.00 | 0.00 | 0.00 | 51 | |
| 20260508181524 | 75 | 250 | 1.0 | 5.0 | 0.00 | 0.00 | 0.00 | 49 | |
| 20260508180029 | 74 | 252 | 1.0 | 4.0 | 0.00 | 0.00 | 0.00 | 49 | |
| 20260508174534 | 74 | 231 | 0.0 | 3.0 | 0.00 | 0.00 | 0.00 | 51 | |
| 20260508173020 | 73 | 227 | 0.0 | 5.0 | 0.00 | 0.00 | 0.00 | 51 | |
| 20260508171524 | 72 | 249 | 1.0 | 7.0 | 0.00 | 0.00 | 0.00 | 51 | |
| 20260508170023 | 72 | 275 | 1.0 | 5.0 | 0.00 | 0.00 | 0.00 | 54 | |
| 20260508164533 | 71 | 233 | 2.0 | 4.0 | 0.00 | 0.00 | 0.00 | 53 | |
| 20260508163028 | 70 | 185 | 0.0 | 2.0 | 0.00 | 0.00 | 0.00 | 53 | |
| 20260508161537 | 69 | 235 | 1.0 | 3.0 | 0.00 | 0.00 | 0.00 | 53 | |
| 20260508160030 | 68 | 169 | 1.0 | 6.0 | 0.00 | 0.00 | 0.00 | 54 | |
| 20260508154522 | 67 | 223 | 0.0 | 2.0 | 0.00 | 0.00 | 0.00 | 54 | |
| 20260508153033 | 67 | 225 | 1.0 | 3.0 | 0.00 | 0.00 | 0.00 | 56 | |
| 20260508151535 | 66 | 220 | 1.0 | 4.0 | 0.00 | 0.00 | 0.00 | 56 |